Weather in Naryn Khuduk

Russia / Republic of Kalmykia     45°25′59″N   46°32′37″E
temp.,
°C
wind,
m/s
gust,
m/s
humid.,
%
clouds,
%
prec.,
mm/h
press.,
hPa
HPBL,
m
12 may, wed
wed1200:00+12ene467345 0.0 1017102
03:00+13ne465942 0.0 1016132
06:00+14ene46631 0.0 1017205
09:00+19e455319 0.0 10171128
12:00+22ene5651100 0.1 10161701
15:00+23ene5651100 0.2 10161746
18:00+21ese455741 0.1 1015537
21:00+17se46690 0.1 1015103
13 may, thu
thu1300:00+15sse33670 0.0 101533
03:00+14se33680 0.0 101435
06:00+15sse11620 0.0 101585
09:00+20e23460 0.0 1015713
12:00+25ese33350 0.0 10151139
15:00+28ese44300 0.0 10141331
18:00+24se66400 0.0 1015545
21:00+18se47660 0.0 1016202
14 may, fri
fri1400:00+17ese48740 0.0 1015213
03:00+16ese36830 0.0 1015102
06:00+19e48670 0.0 1015192
09:00+27se79350 0.0 1015610
12:00+30se1012235 0.0 1015869
15:00+28ese1115285 0.0 1015712
18:00+25se917305 0.0 1015659
21:00+21ese716401 0.0 1016347
15 may, sat
sat1500:00+19ese614460 0.0 1015240
03:00+18ese514460 0.0 1014216
06:00+21ese815450 0.0 1014353
09:00+27se1015280 0.0 1015744
12:00+30se1114220 0.0 10151087
15:00+30se1012226 0.0 1014958
18:00+25ese7113611 0.0 1015499
21:00+20ese511594 0.0 1015234
16 may, sun
sun1600:00+19ese5115351 0.0 1014176
03:00+19e5949100 0.0 1013118
06:00+21ese4105298 0.0 1013207
09:00+29se813265 0.0 1013986
12:00+31se1115227 0.0 10121434
15:00+30ese1114210 0.0 10111152
18:00+27ese915254 0.0 1011706
21:00+22e715425 0.0 1011323